GFSNIL_prec_cloud_003.txt.gz
Cloud_Cover
69 78 52 39 5 18 5 5 5 5 4 5 5 22 41 6 31 73 99 100 98 100
5 16 19 75 36 8 7 2 0 3 5 32 39 100 100 100 99 99 100 100 100 100
100 88 58 90 46 5 4 2 5 21 71 69 87 100 100 100 100 100 100 100 100 90
98 85 99 6 5 5 4 5 77 94 100 100 100 100 100 100 100 100 100 100 100 100
80 93 5 5 5 5 9 78 74 97 100 100 100 100 100 100 100 100 100 100 100 100
92 58 9 26 26 41 100 100 100 99 90 100 100 100 100 100 100 100 100 100 100 100
8 62 74 91 90 100 100 100 99 81 67 85 88 100 100 100 100 100 100 100 100 100
37 100 100 100 100 100 100 100 97 55 77 81 62 89 100 100 100 100 100 100 100 100
30 49 5 5 6 87 100 100 100 100 98 90 82 69 94 98 100 100 100 100 100 99
14 5 5 5 5 5 5 5 5 5 5 12 28 56 91 66 25 43 53 48 48 99
61 30 5 5 5 2 5 5 7 6 9 17 19 5 13 38 98 100 100 100 100 100
88 61 5 5 0 5 5 5 14 16 5 5 5 5 5 5 91 100 98 79 98 99
100 58 5 3 0 2 4 4 5 5 5 5 5 5 5 76 100 100 100 100 100 98
40 24 5 3 0 0 5 5 5 5 5 8 5 6 55 94 100 100 100 100 100 100

GFSNIL_prec_cloud_006.txt.gz
Cloud_Cover
18 7 5 26 91 100 100 100 94 5 6 39 48 99 100 98 100 100 100 100 96 100
78 92 100 100 100 100 100 36 5 58 59 27 32 77 80 97 99 97 100 100 100 100
17 23 82 100 100 35 6 41 51 24 53 73 74 91 67 90 98 100 100 91 100 100
100 100 100 100 45 31 49 36 51 82 100 100 100 100 100 100 100 100 100 100 100 100
100 100 100 52 74 100 98 100 100 100 88 98 100 100 100 100 100 100 100 100 100 100
100 61 32 89 94 98 100 99 97 100 100 100 100 100 100 100 100 100 100 100 100 100
18 67 100 66 62 75 90 100 100 100 100 100 100 96 100 100 100 100 100 100 100 100
5 10 87 49 20 13 6 5 5 5 5 5 5 8 25 25 53 100 100 100 100 100
5 45 23 6 6 15 5 5 5 5 5 6 20 11 14 31 31 34 71 100 97 84
100 60 58 68 100 99 14 5 5 5 5 5 57 11 4 5 5 5 33 99 100 100
99 98 100 100 84 68 19 5 5 22 75 82 94 5 5 5 6 96 100 100 100 100
100 71 14 52 68 5 5 5 54 99 100 99 100 99 45 66 100 100 100 100 100 100
5 5 56 100 30 5 10 89 93 96 92 99 100 100 100 96 100 100 100 100 100 100
8 26 100 61 5 69 98 100 100 100 96 99 100 100 100 100 100 100 100 100 100 100

GFSNIL_prec_cloud_009.txt.gz
Cloud_Cover
24 93 99 100 100 100 100 100 100 6 30 55 96 100 100 99 58 100 96 73 100 100
100 100 100 100 100 100 100 100 80 4 26 100 100 100 100 89 100 88 99 100 100 100
100 100 100 100 100 100 62 10 40 86 100 100 100 100 100 99 97 98 98 100 100 100
100 100 100 50 36 83 88 95 21 33 65 87 88 94 95 97 87 94 99 100 100 100
100 100 64 74 68 100 100 62 49 86 84 94 100 100 100 100 100 100 100 100 100 100
100 98 32 61 69 84 100 97 90 99 76 56 72 80 88 84 93 92 98 92 99 97
5 18 74 99 100 100 98 77 28 5 5 5 6 40 5 58 5 5 5 75 75 91
10 46 93 100 100 100 29 5 5 5 5 5 5 41 5 2 5 5 5 6 28 98
100 69 100 100 100 85 5 5 5 5 49 96 100 96 5 3 5 5 5 81 81 78
53 80 100 100 100 100 10 16 66 99 100 100 100 94 5 5 5 20 24 96 100 100
100 100 100 100 100 67 92 100 100 100 100 100 100 99 30 5 46 100 100 100 100 100
30 100 100 100 100 83 100 100 100 94 88 97 98 100 93 43 100 100 100 100 100 100
99 94 100 100 100 100 100 100 79 32 98 100 100 100 100 80 100 100 100 100 100 99
100 100 100 100 100 100 100 82 85 7 68 88 100 98 100 92 99 100 100 100 100 100

GFSNIL_prec_cloud_012.txt.gz
Cloud_Cover
100 100 100 100 100 100 100 100 100 100 98 41 37 35 41 100 100 75 99 35 17 6
72 100 100 100 100 100 98 82 97 100 100 48 5 88 100 100 100 96 88 100 99 31
100 100 100 100 100 100 64 38 20 5 10 36 50 50 70 69 90 95 90 99 100 100
94 36 8 5 5 5 4 0 72 76 7 35 5 16 78 97 100 100 100 100 99 92
40 74 5 5 5 3 5 5 5 25 73 70 91 45 8 5 6 26 29 100 60 72
5 5 5 2 38 5 5 11 5 5 5 5 5 5 5 5 25 5 5 5 21 4
5 5 0 5 4 5 5 5 5 32 38 5 5 5 9 16 5 5 1 0 0 0
79 42 5 5 2 22 5 5 5 5 5 5 35 71 17 3 0 0 0 0 0 0
6 100 95 100 5 5 78 61 11 56 99 6 6 6 5 5 5 5 5 5 2 5
82 100 53 100 76 25 8 27 95 100 99 29 5 5 5 5 62 59 4 5 5 5
61 6 100 100 100 5 38 94 100 100 92 24 5 5 5 5 5 5 5 32 6 5
100 76 100 100 98 12 97 59 100 12 85 10 5 5 96 78 75 6 5 26 98 98
99 100 100 83 64 58 97 94 44 5 5 4 5 97 100 75 100 76 17 97 65 77
34 100 98 69 12 99 96 68 7 5 5 5 68 100 97 98 100 100 85 56 64 98

GFSNIL_prec_cloud_015.txt.gz
Cloud_Cover
87 94 100 100 100 98 28 6 5 4 3 4 5 7 11 33 76 100 41 32 100 54
100 100 99 87 21 7 9 4 5 3 3 5 5 5 9 59 42 28 86 100 100 100
88 96 37 5 5 3 1 0 0 0 0 5 5 5 5 14 38 88 100 100 100 100
5 5 5 5 0 0 0 0 0 0 1 5 5 68 59 60 5 3 5 4 11 17
22 41 77 5 5 72 1 18 43 6 5 0 0 5 0 5 5 5 5 5 19 80
53 6 76 100 94 100 81 100 97 70 68 3 0 1 5 16 90 6 5 5 5 2
16 5 5 48 93 100 100 100 100 63 82 3 5 5 5 13 5 4 0 0 2 0
5 34 66 46 50 100 100 100 37 84 100 1 5 4 5 5 5 0 0 5 5 1
54 83 85 86 100 100 100 100 99 100 39 13 2 5 87 64 5 3 3 2 0 0
5 6 81 64 100 100 100 95 96 98 59 5 59 55 99 31 5 5 5 5 5 5
4 2 4 49 100 100 100 100 95 95 5 69 91 23 5 5 6 7 53 76 64 6
0 5 42 95 100 90 100 100 100 5 5 5 5 5 5 6 6 5 31 45 43 46
4 5 8 48 99 100 100 99 8 5 5 5 5 5 55 73 98 100 64 98 100 100
4 5 16 90 93 100 91 6 5 5 5 5 4 5 17 99 100 99 100 100 100 100

GFSNIL_prec_cloud_018.txt.gz
Cloud_Cover
51 91 100 100 100 100 77 1 5 5 0 0 0 0 0 0 0 4 5 5 68 83
5 5 5 2 3 5 0 0 4 2 5 9 5 0 0 3 0 0 4 5 2 60
5 4 5 5 3 3 21 8 86 87 79 98 79 48 29 69 60 2 0 1 5 5
2 5 5 5 13 80 60 99 100 100 100 100 100 77 63 100 5 0 4 5 31 54
5 5 5 5 0 11 55 41 100 100 94 24 100 83 99 86 0 5 90 98 44 42
5 5 4 2 2 72 99 100 93 100 100 100 78 98 74 0 1 5 5 3 2 0
5 5 5 4 5 31 59 100 100 95 100 100 9 25 0 5 5 5 5 5 3 0
68 0 0 3 18 38 76 51 100 100 100 100 67 1 66 79 5 5 4 4 4 2
0 0 0 0 5 23 57 100 100 100 100 100 31 77 82 5 5 5 5 5 5 5
0 0 0 4 33 68 78 100 100 100 100 71 16 14 5 5 9 43 5 5 5 5
0 1 0 5 13 76 55 100 100 98 36 55 5 5 9 51 5 5 5 5 5 5
0 5 2 7 66 34 72 10 86 84 77 5 5 5 6 35 9 5 5 5 68 96
5 5 5 11 100 96 36 95 100 89 34 5 5 1 5 67 92 36 79 43 97 100
5 5 47 98 98 68 76 53 65 65 5 5 3 4 5 82 100 100 96 73 99 100

GFSNIL_prec_cloud_021.txt.gz
Cloud_Cover
74 100 72 8 5 5 5 4 5 5 5 5 86 90 63 99 100 98 89 4 0 0
5 1 5 5 5 5 1 5 7 13 29 94 66 68 100 62 92 83 3 96 12 0
5 5 5 5 2 3 1 54 100 100 92 100 91 100 100 100 95 49 98 89 5 0
5 5 5 5 2 14 62 100 88 54 91 100 100 100 100 100 100 100 100 94 5 5
4 5 2 2 5 16 4 5 5 5 56 100 100 100 100 79 100 92 35 5 5 5
4 1 5 5 0 0 0 0 5 95 49 98 99 100 93 60 3 7 66 8 64 5
5 5 4 0 0 0 1 15 100 13 12 98 99 99 100 88 27 61 5 31 5 5
5 5 0 0 0 1 70 100 32 63 100 22 99 100 100 47 6 5 5 5 5 5
5 0 0 0 0 5 12 40 100 96 87 100 100 100 61 5 5 5 5 60 40 5
5 2 0 5 5 16 95 92 77 36 81 94 97 5 10 6 5 6 13 58 50 9
5 1 6 39 5 5 27 51 6 35 99 65 5 5 5 14 5 5 5 5 5 43
5 10 54 8 12 62 56 68 82 52 9 46 27 3 5 8 7 5 5 5 5 98
6 100 88 5 59 54 100 98 10 90 98 24 5 2 5 47 32 26 86 9 5 70
100 100 17 5 11 81 87 93 100 93 13 5 5 4 5 74 59 97 83 95 79 77

GFSNIL_prec_cloud_024.txt.gz
Cloud_Cover
5 3 5 0 5 5 5 5 5 5 5 60 96 5 5 5 48 98 98 98 6 12
3 5 5 5 7 55 61 7 5 26 77 89 54 17 87 77 100 38 32 97 10 1
5 10 36 88 92 49 6 5 5 29 4 8 65 95 93 98 100 87 7 5 5 0
20 13 23 41 9 0 0 0 0 2 71 89 88 100 99 70 85 89 14 25 0 5
5 5 5 5 0 0 0 0 0 5 100 100 98 23 98 22 59 86 87 72 5 5
5 5 5 4 5 5 5 5 5 73 75 100 6 80 32 87 78 99 18 5 5 5
5 5 5 7 5 5 2 2 4 72 100 100 100 100 100 96 80 5 5 5 5 5
19 8 47 5 5 5 4 6 98 54 94 95 100 100 88 16 5 5 5 5 25 43
39 33 48 32 5 0 12 100 100 100 99 57 17 6 46 5 5 5 5 6 5 5
48 100 5 5 3 5 9 98 75 89 5 5 6 14 5 6 5 5 5 5 5 22
100 27 5 5 2 9 98 83 16 38 45 34 5 5 5 5 5 5 5 5 8 71
37 5 5 0 5 100 66 98 99 99 7 5 26 5 5 5 5 5 5 5 5 99
29 0 4 5 78 100 7 53 9 81 48 51 5 3 5 44 36 30 46 14 33 24
5 5 5 49 100 5 5 8 63 71 24 5 5 5 5 79 100 87 95 51 9 45